KO6TH-15 Weather Reports


time (UTC)temp
C
wind
direction
speed
KPH
gust
KPH
rain 1hr
cm
rain 24hr
cm
rain mn
cm
humidity
%
barometer
mb
20260509220819 32 0 3.2 0.0 0.00 0.00 0.00 48
20260509215749 31 0 3.2 0.0 0.00 0.00 0.00 48
20260509214719 32 0 6.4 0.0 0.00 0.00 0.00 46
20260509213649 32 0 9.7 0.0 0.00 0.00 0.00 47
20260509212619 32 0 4.8 0.0 0.00 0.00 0.00 47
20260509211619 31 0 4.8 0.0 0.00 0.00 0.00 49
20260509210619 32 0 6.4 0.0 0.00 0.00 0.00 47
20260509205549 31 0 3.2 0.0 0.00 0.00 0.00 49
20260509204519 30 0 4.8 0.0 0.00 0.00 0.00 51
20260509203449 30 0 6.4 0.0 0.00 0.00 0.00 52
20260509202449 30 0 4.8 0.0 0.00 0.00 0.00 51
20260509201419 31 0 8.0 0.0 0.00 0.00 0.00 49
20260509200419 30 0 1.6 0.0 0.00 0.00 0.00 52
20260509195349 30 0 6.4 0.0 0.00 0.00 0.00 52
20260509194319 30 0 3.2 0.0 0.00 0.00 0.00 53
20260509193249 28 0 3.2 0.0 0.00 0.00 0.00 56
20260509192249 28 0 4.8 0.0 0.00 0.00 0.00 55
20260509191219 30 0 4.8 0.0 0.00 0.00 0.00 52
20260509190149 29 0 0.0 0.0 0.00 0.00 0.00 53
20260509185149 28 0 3.2 0.0 0.00 0.00 0.00 54
20260509184119 27 0 1.6 0.0 0.00 0.00 0.00 56
20260509183119 27 0 3.2 0.0 0.00 0.00 0.00 56
20260509182049 27 0 3.2 0.0 0.00 0.00 0.00 57
20260509181019 26 0 3.2 0.0 0.00 0.00 0.00 59
20260509180019 26 0 8.0 0.0 0.00 0.00 0.00 60
20260509174949 25 0 1.6 0.0 0.00 0.00 0.00 62
20260509173919 25 0 4.8 0.0 0.00 0.00 0.00 64
20260509172849 23 0 4.8 0.0 0.00 0.00 0.00 66
20260509171819 23 0 1.6 0.0 0.00 0.00 0.00 68
20260509170749 23 0 0.0 0.0 0.00 0.00 0.00 69
20260509165719 22 0 3.2 0.0 0.00 0.00 0.00 70
20260509164649 22 0 4.8 0.0 0.00 0.00 0.00 70
20260509163619 22 0 4.8 0.0 0.00 0.00 0.00 70
20260509162549 22 0 3.2 0.0 0.00 0.00 0.00 69
20260509161549 21 0 3.2 0.0 0.00 0.00 0.00 72
20260509160519 21 0 0.0 0.0 0.00 0.00 0.00 74
20260509155519 20 0 0.0 0.0 0.00 0.00 0.00 76
20260509154449 18 0 0.0 0.0 0.00 0.00 0.00 82
20260509153419 18 0 0.0 0.0 0.00 0.00 0.00 83
20260509152349 17 0 0.0 0.0 0.00 0.00 0.00 85
20260509151349 17 0 0.0 0.0 0.00 0.00 0.00 86
20260509150349 17 0 0.0 0.0 0.00 0.00 0.00 90
20260509145349 15 0 1.6 0.0 0.00 0.00 0.00 92
20260509144319 13 0 0.0 0.0 0.00 0.00 0.00 99
20260509143319 13 0 0.0 0.0 0.00 0.00 0.00 99
20260509142249 12 0 0.0 0.0 0.00 0.00 0.00 99
20260509141249 12 0 0.0 0.0 0.00 0.00 0.00 99
20260509140249 11 0 0.0 0.0 0.00 0.00 0.00 99
20260509135219 10 0 0.0 0.0 0.00 0.00 0.00 99
20260509134219 10 0 0.0 0.0 0.00 0.00 0.00 99
20260509133149 10 0 0.0 0.0 0.00 0.00 0.00 99
20260509132119 10 0 0.0 0.0 0.00 0.00 0.00 99
20260509131049 10 0 0.0 0.0 0.00 0.00 0.00 99
20260509130049 10 0 0.0 0.0 0.00 0.00 0.00 99
20260509125019 10 0 0.0 0.0 0.00 0.00 0.00 99
20260509124019 10 0 0.0 0.0 0.00 0.00 0.00 99
20260509122949 10 0 0.0 0.0 0.00 0.00 0.00 99
20260509121919 10 0 0.0 0.0 0.00 0.00 0.00 99
20260509120849 10 0 0.0 0.0 0.00 0.00 0.00 99
20260509115819 10 0 0.0 0.0 0.00 0.00 0.00 99
20260509114819 10 0 0.0 0.0 0.00 0.00 0.00 99
20260509113749 11 0 0.0 0.0 0.00 0.00 0.00 99
20260509112749 10 0 0.0 0.0 0.00 0.00 0.00 99
20260509111719 10 0 0.0 0.0 0.00 0.00 0.00 99
20260509110719 10 0 0.0 0.0 0.00 0.00 0.00 99
20260509105649 11 0 0.0 0.0 0.00 0.00 0.00 99
20260509104649 11 0 0.0 0.0 0.00 0.00 0.00 99
20260509103649 11 0 0.0 0.0 0.00 0.00 0.00 99
20260509102649 11 0 0.0 0.0 0.00 0.00 0.00 99
20260509101619 11 0 0.0 0.0 0.00 0.00 0.00 99
20260509100549 11 0 0.0 0.0 0.00 0.00 0.00 99
20260509095519 11 0 0.0 0.0 0.00 0.00 0.00 99
20260509094519 11 0 0.0 0.0 0.00 0.00 0.00 99
20260509093449 11 0 0.0 0.0 0.00 0.00 0.00 99
20260509092419 11 0 0.0 0.0 0.00 0.00 0.00 99
20260509091419 11 0 0.0 0.0 0.00 0.00 0.00 99
20260509090349 11 0 0.0 0.0 0.00 0.00 0.00 99
20260509085349 11 0 0.0 0.0 0.00 0.00 0.00 99
20260509084349 12 0 0.0 0.0 0.00 0.00 0.00 99
20260509083349 12 0 0.0 0.0 0.00 0.00 0.00 99
20260509082319 12 0 0.0 0.0 0.00 0.00 0.00 99
20260509081249 12 0 0.0 0.0 0.00 0.00 0.00 99
20260509080219 12 0 0.0 0.0 0.00 0.00 0.00 99
20260509075149 12 0 0.0 0.0 0.00 0.00 0.00 99
20260509074149 12 0 0.0 0.0 0.00 0.00 0.00 99
20260509073119 13 0 0.0 0.0 0.00 0.00 0.00 99
20260509072049 13 0 0.0 0.0 0.00 0.00 0.00 99
20260509071049 13 0 0.0 0.0 0.00 0.00 0.00 99
20260509070049 13 0 0.0 0.0 0.00 0.00 0.00 99
20260509065019 13 0 0.0 0.0 0.00 0.00 0.00 99
20260509063949 13 0 0.0 0.0 0.00 0.00 0.00 98
20260509062919 13 0 0.0 0.0 0.00 0.00 0.00 98
20260509061849 14 0 0.0 0.0 0.00 0.00 0.00 99
20260509060819 14 0 0.0 0.0 0.00 0.00 0.00 98
20260509055819 15 0 0.0 0.0 0.00 0.00 0.00 98
20260509054749 15 0 0.0 0.0 0.00 0.00 0.00 97
20260509053719 15 0 0.0 0.0 0.00 0.00 0.00 97
20260509052649 15 0 0.0 0.0 0.00 0.00 0.00 96
20260509051649 15 0 0.0 0.0 0.00 0.00 0.00 95
20260509050619 15 0 0.0 0.0 0.00 0.00 0.00 94
20260509045619 16 0 0.0 0.0 0.00 0.00 0.00 94
20260509044619 16 0 0.0 0.0 0.00 0.00 0.00 91
20260509043549 16 0 0.0 0.0 0.00 0.00 0.00 91
20260509042519 17 0 0.0 0.0 0.00 0.00 0.00 89
20260509041519 17 0 0.0 0.0 0.00 0.00 0.00 89
20260509040449 17 0 0.0 0.0 0.00 0.00 0.00 86
20260509035419 18 0 0.0 0.0 0.00 0.00 0.00 85
20260509034419 18 0 0.0 0.0 0.00 0.00 0.00 83
20260509033349 19 0 0.0 0.0 0.00 0.00 0.00 81
20260509032349 20 0 0.0 0.0 0.00 0.00 0.00 79
20260509031319 21 0 0.0 0.0 0.00 0.00 0.00 76
20260509030249 21 0 0.0 0.0 0.00 0.00 0.00 74
20260509025219 22 0 0.0 0.0 0.00 0.00 0.00 72
20260509024149 23 0 0.0 0.0 0.00 0.00 0.00 69
20260509023119 23 0 0.0 0.0 0.00 0.00 0.00 67
20260509022049 25 0 0.0 0.0 0.00 0.00 0.00 63
20260509021049 25 0 0.0 0.0 0.00 0.00 0.00 59
20260509020019 25 0 0.0 0.0 0.00 0.00 0.00 55
20260509015019 26 0 1.6 0.0 0.00 0.00 0.00 54
20260509013949 26 0 0.0 0.0 0.00 0.00 0.00 50
20260509012919 26 0 1.6 0.0 0.00 0.00 0.00 50
20260509011849 26 0 3.2 0.0 0.00 0.00 0.00 55
20260509010849 26 0 3.2 0.0 0.00 0.00 0.00 56
20260509005819 26 0 4.8 0.0 0.00 0.00 0.00 56
20260509004749 27 0 3.2 0.0 0.00 0.00 0.00 54
20260509003719 27 0 1.6 0.0 0.00 0.00 0.00 54
20260509002649 27 0 8.0 0.0 0.00 0.00 0.00 52
20260509001649 28 0 6.4 0.0 0.00 0.00 0.00 51
20260509000619 29 0 4.8 0.0 0.00 0.00 0.00 47
20260508235549 31 0 4.8 0.0 0.00 0.00 0.00 43
20260508234549 30 0 3.2 0.0 0.00 0.00 0.00 47
20260508233549 30 0 6.4 0.0 0.00 0.00 0.00 47
20260508232549 30 0 6.4 0.0 0.00 0.00 0.00 48
20260508231519 30 0 1.6 0.0 0.00 0.00 0.00 49
20260508230520 30 0 4.8 0.0 0.00 0.00 0.00 47
20260508225449 31 0 3.2 0.0 0.00 0.00 0.00 47
20260508224419 31 0 4.8 0.0 0.00 0.00 0.00 49
20260508223419 30 0 6.4 0.0 0.00 0.00 0.00 51
20260508222419 30 0 3.2 0.0 0.00 0.00 0.00 52